UAL140 YPPH-YSSY

Flight info

Callsign UAL140
Flight time N/A
Altitude 39000
Route PH H18 MUBID J21 BORLI H205 CULIN Y59 RIVET
Aircraft B77W/H-SDE1E2E3FGHIJ2J3J4J5M1RWXY/LB1D1

Departure

Time N/A
Airport Perth International Airport (YPPH)

Arrival

Time 2026-04-30 10:14
Airport Sydney Kingsford Smith International Airport (YSSY)
Time Latitude Longitude Altitude Speed Heading
2026-04-30 09:21 -34.16723 145.28088 39350 ft 499 kts 97°
2026-04-30 09:22 -34.17615 145.36408 39351 ft 499 kts 97°
2026-04-30 09:22 -34.18495 145.44670 39350 ft 499 kts 97°
2026-04-30 09:23 -34.19375 145.52979 39357 ft 498 kts 97°
2026-04-30 09:23 -34.20249 145.61284 39360 ft 498 kts 97°
2026-04-30 09:24 -34.21114 145.69571 39360 ft 497 kts 97°
2026-04-30 09:24 -34.21975 145.77870 39358 ft 497 kts 97°
2026-04-30 09:25 -34.22824 145.86109 39358 ft 497 kts 97°
2026-04-30 09:25 -34.23671 145.94394 39359 ft 497 kts 97°
2026-04-30 09:26 -34.24516 146.02701 39359 ft 497 kts 97°
2026-04-30 09:26 -34.25547 146.10960 39363 ft 496 kts 101°
2026-04-30 09:27 -34.26881 146.19151 39369 ft 496 kts 101°
2026-04-30 09:27 -34.28242 146.27338 39368 ft 496 kts 101°
2026-04-30 09:28 -34.29574 146.35530 39368 ft 497 kts 101°
2026-04-30 09:28 -34.30866 146.43638 39291 ft 486 kts 101°
2026-04-30 09:29 -34.31495 146.47608 39014 ft 477 kts 101°
2026-04-30 09:29 -34.32117 146.51546 38444 ft 476 kts 101°
2026-04-30 09:29 -34.32741 146.55490 37771 ft 477 kts 101°
2026-04-30 09:29 -34.33362 146.59435 37111 ft 478 kts 101°
2026-04-30 09:30 -34.33983 146.63388 36477 ft 477 kts 101°
2026-04-30 09:30 -34.34600 146.67325 35843 ft 476 kts 101°
2026-04-30 09:30 -34.35219 146.71277 35077 ft 478 kts 101°
2026-04-30 09:30 -34.35839 146.75241 34222 ft 482 kts 100°
2026-04-30 09:31 -34.36463 146.79243 33360 ft 485 kts 100°
2026-04-30 09:31 -34.37078 146.83195 32520 ft 487 kts 100°
2026-04-30 09:31 -34.37708 146.87242 31651 ft 488 kts 100°
2026-04-30 09:31 -34.38335 146.91292 30797 ft 488 kts 100°
2026-04-30 09:32 -34.38959 146.95336 29962 ft 488 kts 99°
2026-04-30 09:32 -34.39581 146.99376 29239 ft 486 kts 99°
2026-04-30 09:32 -34.40196 147.03368 28643 ft 480 kts 99°
2026-04-30 09:32 -34.40803 147.07323 28061 ft 474 kts 99°
2026-04-30 09:33 -34.41402 147.11234 27458 ft 469 kts 99°
2026-04-30 09:33 -34.41990 147.15085 26874 ft 465 kts 99°
2026-04-30 09:33 -34.42578 147.18936 26240 ft 461 kts 99°
2026-04-30 09:33 -34.43157 147.22741 25681 ft 456 kts 99°
2026-04-30 09:34 -34.43726 147.26487 25505 ft 461 kts 99°
2026-04-30 09:34 -34.44304 147.30306 25387 ft 458 kts 99°
2026-04-30 09:34 -34.44876 147.34088 25384 ft 454 kts 99°
2026-04-30 09:34 -34.45442 147.37848 25380 ft 453 kts 99°
2026-04-30 09:35 -34.46008 147.41613 25388 ft 454 kts 99°
2026-04-30 09:35 -34.46383 147.44107 25390 ft 455 kts 99°
2026-04-30 09:35 -34.46952 147.47896 25387 ft 455 kts 99°
2026-04-30 09:35 -34.47518 147.51671 25386 ft 456 kts 99°
2026-04-30 09:36 -34.48267 147.56677 25389 ft 455 kts 99°
2026-04-30 09:36 -34.48647 147.59235 25391 ft 455 kts 99°
2026-04-30 09:36 -34.49209 147.63019 25395 ft 455 kts 99°
2026-04-30 09:36 -34.49768 147.66797 25395 ft 455 kts 99°
2026-04-30 09:37 -34.50326 147.70568 25396 ft 455 kts 99°
2026-04-30 09:37 -34.50875 147.74286 25395 ft 454 kts 99°
2026-04-30 09:37 -34.51431 147.78057 25395 ft 454 kts 99°
2026-04-30 09:37 -34.51985 147.81825 25394 ft 454 kts 99°
2026-04-30 09:38 -34.52538 147.85587 25395 ft 453 kts 99°
2026-04-30 09:38 -34.53090 147.89362 25395 ft 454 kts 99°
2026-04-30 09:38 -34.53641 147.93130 25399 ft 453 kts 99°
2026-04-30 09:38 -34.54190 147.96902 25402 ft 453 kts 99°
2026-04-30 09:39 -34.54738 148.00669 25405 ft 453 kts 99°
2026-04-30 09:39 -34.55283 148.04433 25406 ft 453 kts 99°
2026-04-30 09:39 -34.55828 148.08200 25406 ft 453 kts 99°
2026-04-30 09:39 -34.56373 148.11972 25403 ft 453 kts 99°
2026-04-30 09:40 -34.56909 148.15687 25403 ft 452 kts 99°
2026-04-30 09:40 -34.57451 148.19456 25404 ft 452 kts 99°
2026-04-30 09:40 -34.57989 148.23208 25405 ft 452 kts 99°
2026-04-30 09:40 -34.58528 148.26976 25405 ft 452 kts 99°
2026-04-30 09:41 -34.59064 148.30735 25406 ft 452 kts 99°
2026-04-30 09:41 -34.59601 148.34501 25411 ft 452 kts 99°
2026-04-30 09:41 -34.60135 148.38261 25414 ft 452 kts 99°
2026-04-30 09:41 -34.60667 148.42013 25415 ft 452 kts 99°
2026-04-30 09:42 -34.61199 148.45776 25414 ft 452 kts 99°
2026-04-30 09:42 -34.61730 148.49538 25415 ft 452 kts 99°
2026-04-30 09:42 -34.62253 148.53252 25414 ft 452 kts 99°
2026-04-30 09:42 -34.62782 148.57011 25412 ft 452 kts 99°
2026-04-30 09:43 -34.63310 148.60774 25414 ft 452 kts 99°
2026-04-30 09:43 -34.63836 148.64534 25418 ft 452 kts 99°
2026-04-30 09:43 -34.64364 148.68317 25423 ft 452 kts 99°
2026-04-30 09:43 -34.64888 148.72080 25425 ft 452 kts 99°
2026-04-30 09:44 -34.65411 148.75844 25423 ft 452 kts 99°
2026-04-30 09:44 -34.65932 148.79611 25423 ft 452 kts 99°
2026-04-30 09:44 -34.66453 148.83376 25423 ft 452 kts 99°
2026-04-30 09:44 -34.66973 148.87141 25422 ft 452 kts 99°
2026-04-30 09:45 -34.67484 148.90857 25422 ft 452 kts 99°
2026-04-30 09:45 -34.68001 148.94619 25424 ft 452 kts 99°
2026-04-30 09:45 -34.68515 148.98383 25422 ft 451 kts 99°
2026-04-30 09:45 -34.69028 149.02140 25422 ft 451 kts 99°
2026-04-30 09:46 -34.69547 149.05949 25423 ft 451 kts 99°
2026-04-30 09:46 -34.70027 149.09474 25422 ft 450 kts 99°
2026-04-30 09:46 -34.70536 149.13227 25423 ft 450 kts 99°
2026-04-30 09:46 -34.71045 149.16982 25423 ft 450 kts 99°
2026-04-30 09:47 -34.71553 149.20746 25423 ft 450 kts 99°
2026-04-30 09:47 -34.72058 149.24495 25422 ft 450 kts 99°
2026-04-30 09:47 -34.72564 149.28256 25425 ft 450 kts 99°
2026-04-30 09:47 -34.73067 149.32013 25424 ft 450 kts 99°
2026-04-30 09:48 -34.73435 149.35765 25197 ft 445 kts 91°
2026-04-30 09:48 -34.73166 149.39501 24670 ft 442 kts 78°
2026-04-30 09:48 -34.72299 149.43064 24049 ft 439 kts 68°
2026-04-30 09:48 -34.70937 149.46354 23375 ft 435 kts 62°
2026-04-30 09:49 -34.69503 149.49534 22725 ft 433 kts 61°
2026-04-30 09:49 -34.68064 149.52729 22144 ft 429 kts 62°
2026-04-30 09:49 -34.66648 149.55900 21595 ft 425 kts 62°
2026-04-30 09:49 -34.65257 149.59041 21037 ft 421 kts 62°
2026-04-30 09:50 -34.63883 149.62164 20476 ft 417 kts 62°
2026-04-30 09:50 -34.62520 149.65272 19916 ft 414 kts 62°
2026-04-30 09:50 -34.61175 149.68344 19362 ft 410 kts 62°
2026-04-30 09:50 -34.59840 149.71389 18811 ft 407 kts 62°
2026-04-30 09:51 -34.58512 149.74416 18259 ft 404 kts 62°
2026-04-30 09:51 -34.57190 149.77426 17712 ft 401 kts 62°
2026-04-30 09:51 -34.55901 149.80359 17185 ft 398 kts 62°
2026-04-30 09:51 -34.54600 149.83316 16662 ft 395 kts 62°
2026-04-30 09:52 -34.53311 149.86244 16147 ft 391 kts 62°
2026-04-30 09:52 -34.52032 149.89145 15628 ft 388 kts 62°
2026-04-30 09:52 -34.50763 149.92021 15093 ft 386 kts 62°
2026-04-30 09:52 -34.49502 149.94876 14586 ft 382 kts 62°
2026-04-30 09:53 -34.48253 149.97709 14085 ft 379 kts 62°
2026-04-30 09:53 -34.47012 150.00514 13628 ft 375 kts 61°
2026-04-30 09:53 -34.46192 150.02362 13506 ft 376 kts 61°
2026-04-30 09:53 -34.45598 150.03700 13446 ft 377 kts 61°
2026-04-30 09:54 -34.44361 150.06488 13424 ft 375 kts 62°
2026-04-30 09:54 -34.43132 150.09261 13413 ft 369 kts 61°
2026-04-30 09:54 -34.41942 150.11947 13406 ft 355 kts 61°
2026-04-30 09:54 -34.40793 150.14532 13402 ft 343 kts 61°
2026-04-30 09:55 -34.39668 150.17067 13415 ft 344 kts 61°
2026-04-30 09:55 -34.38534 150.19618 13425 ft 344 kts 61°
2026-04-30 09:55 -34.37401 150.22162 13421 ft 342 kts 61°
2026-04-30 09:55 -34.36270 150.24704 13419 ft 341 kts 61°
2026-04-30 09:56 -34.35146 150.27223 13420 ft 340 kts 61°
2026-04-30 09:56 -34.34022 150.29741 13421 ft 339 kts 61°
2026-04-30 09:56 -34.32905 150.32250 13426 ft 339 kts 61°
2026-04-30 09:56 -34.31796 150.34734 13423 ft 338 kts 61°
2026-04-30 09:57 -34.30677 150.37235 13421 ft 338 kts 61°
2026-04-30 09:57 -34.29577 150.39693 13376 ft 324 kts 61°
2026-04-30 09:57 -34.28536 150.42020 13080 ft 310 kts 61°
2026-04-30 09:57 -34.27521 150.44291 12854 ft 304 kts 61°
2026-04-30 09:58 -34.26525 150.46517 12578 ft 300 kts 61°
2026-04-30 09:58 -34.25538 150.48724 12262 ft 297 kts 61°
2026-04-30 09:58 -34.24554 150.50915 11904 ft 297 kts 61°
2026-04-30 09:58 -34.23585 150.53081 11572 ft 295 kts 61°
2026-04-30 09:59 -34.21642 150.57415 10868 ft 292 kts 61°
2026-04-30 09:59 -34.19722 150.61693 10403 ft 282 kts 61°
2026-04-30 10:00 -34.17902 150.65737 10113 ft 267 kts 61°
2026-04-30 10:00 -34.17022 150.67697 9847 ft 263 kts 61°
2026-04-30 10:01 -34.15281 150.71566 9249 ft 261 kts 61°
2026-04-30 10:01 -34.14415 150.73486 8962 ft 260 kts 61°
2026-04-30 10:01 -34.13554 150.75398 8645 ft 258 kts 61°
2026-04-30 10:02 -34.11877 150.79119 8309 ft 252 kts 61°
2026-04-30 10:02 -34.11020 150.81016 7879 ft 260 kts 61°
2026-04-30 10:02 -34.10159 150.82922 7361 ft 256 kts 61°
2026-04-30 10:02 -34.09318 150.84793 6857 ft 252 kts 61°
2026-04-30 10:03 -34.08488 150.86637 6349 ft 247 kts 61°
2026-04-30 10:03 -34.07668 150.88461 6102 ft 252 kts 61°
2026-04-30 10:03 -34.06821 150.90344 6039 ft 256 kts 61°
2026-04-30 10:03 -34.05981 150.92210 5996 ft 248 kts 61°
2026-04-30 10:04 -34.05168 150.94014 5987 ft 242 kts 61°
2026-04-30 10:04 -34.04367 150.95788 5995 ft 242 kts 61°
2026-04-30 10:04 -34.03557 150.97576 6014 ft 245 kts 61°
2026-04-30 10:04 -34.02994 150.99502 5994 ft 246 kts 86°
2026-04-30 10:05 -34.03316 151.01518 5988 ft 249 kts 115°
2026-04-30 10:05 -34.04345 151.03185 5888 ft 250 kts 132°
2026-04-30 10:05 -34.05572 151.04726 5478 ft 258 kts 132°
2026-04-30 10:05 -34.06834 151.06299 5013 ft 264 kts 132°
2026-04-30 10:06 -34.08251 151.07704 4493 ft 270 kts 153°
2026-04-30 10:06 -34.10073 151.08313 4017 ft 272 kts 167°
2026-04-30 10:06 -34.11884 151.08750 3552 ft 278 kts 166°
2026-04-30 10:06 -34.13792 151.09236 3145 ft 280 kts 166°
2026-04-30 10:07 -34.15667 151.09717 3000 ft 272 kts 165°
2026-04-30 10:07 -34.17542 151.10200 2981 ft 258 kts 165°
2026-04-30 10:07 -34.19253 151.10641 2978 ft 245 kts 165°
2026-04-30 10:07 -34.20763 151.11338 2981 ft 227 kts 137°
2026-04-30 10:08 -34.21665 151.12796 2990 ft 213 kts 105°
2026-04-30 10:08 -34.21865 151.14500 3002 ft 200 kts 84°
2026-04-30 10:08 -34.21624 151.16133 3006 ft 198 kts 66°
2026-04-30 10:08 -34.20890 151.17506 3012 ft 194 kts 53°
2026-04-30 10:09 -34.20091 151.18804 3030 ft 194 kts 53°
2026-04-30 10:09 -34.19286 151.20117 3004 ft 194 kts 53°
2026-04-30 10:09 -34.18487 151.21423 2999 ft 193 kts 53°
2026-04-30 10:09 -34.17526 151.22510 2990 ft 191 kts 28°
2026-04-30 10:10 -34.16200 151.22815 3006 ft 200 kts
2026-04-30 10:10 -34.14793 151.22694 3008 ft 205 kts 357°
2026-04-30 10:10 -34.13381 151.22456 3002 ft 205 kts 353°
2026-04-30 10:10 -34.11984 151.22123 2997 ft 204 kts 351°
2026-04-30 10:11 -34.10593 151.21761 2836 ft 205 kts 351°
2026-04-30 10:11 -34.09255 151.21410 2555 ft 185 kts 351°
2026-04-30 10:11 -34.08081 151.21101 2339 ft 163 kts 352°
2026-04-30 10:11 -34.06999 151.20821 2129 ft 161 kts 351°
2026-04-30 10:12 -34.05904 151.20535 1900 ft 161 kts 351°
2026-04-30 10:12 -34.04814 151.20250 1707 ft 160 kts 350°
2026-04-30 10:12 -34.03723 151.19965 1480 ft 160 kts 350°
2026-04-30 10:12 -34.02629 151.19680 1279 ft 161 kts 349°
2026-04-30 10:13 -34.01534 151.19394 1065 ft 161 kts 349°
2026-04-30 10:13 -34.00440 151.19109 844 ft 160 kts 349°
2026-04-30 10:13 -33.99350 151.18826 638 ft 160 kts 349°
2026-04-30 10:13 -33.98255 151.18539 417 ft 160 kts 348°
2026-04-30 10:14 -33.97168 151.18255 220 ft 160 kts 348°
2026-04-30 10:14 -33.96094 151.17976 39 ft 159 kts 348°
2026-04-30 10:14 -33.94673 151.17607 34 ft 27 kts 347°
2026-04-30 10:15 -33.94483 151.17507 35 ft 23 kts 326°
2026-04-30 10:15 -33.94435 151.17468 35 ft 2 kts 325°
2026-04-30 10:15 -33.94424 151.17458 35 ft 0 kts 325°
2026-04-30 10:15 -33.94421 151.17456 35 ft 0 kts 324°
2026-04-30 10:16 -33.94419 151.17454 35 ft 3 kts 324°
2026-04-30 10:16 -33.94389 151.17423 35 ft 3 kts 319°
2026-04-30 10:16 -33.94386 151.17420 35 ft 0 kts 319°
2026-04-30 10:17 -33.94383 151.17417 35 ft 0 kts 319°
2026-04-30 10:17 -33.94347 151.17230 35 ft 14 kts 257°
2026-04-30 10:17 -33.94372 151.17118 35 ft 14 kts 253°
2026-04-30 10:18 -33.94400 151.17000 35 ft 15 kts 256°
2026-04-30 10:18 -33.94368 151.16914 34 ft 12 kts 333°
2026-04-30 10:18 -33.94297 151.16883 33 ft 12 kts 348°
2026-04-30 10:19 -33.94128 151.16837 34 ft 12 kts 347°
2026-04-30 10:19 -33.94044 151.16813 35 ft 12 kts 345°
2026-04-30 10:19 -33.93971 151.16788 35 ft 9 kts 345°
2026-04-30 10:19 -33.93908 151.16792 35 ft 10 kts 43°
2026-04-30 10:20 -33.93896 151.16837 35 ft 2 kts 74°
2026-04-30 10:20 -33.93891 151.16860 35 ft 0 kts 74°